#timestamp,LO_Frequency,Hit,StdDev 
1571148015.7,286046996.1,P
1571148035.6,286046992.2,P
1571148055.4,286046992.6,N
1571148075.3,286046992.8,N
1571148095.1,286046991.4,Y
1571148096.0,286046991.4,P
1571148115.8,286046995.4,P
1571148135.7,286046996.2,N
1571148155.5,286046994.4,Y
1571148175.4,286046999.5,P
1571148195.2,286046995.1,N
1571148215.0,286046996.4,N
1571148215.9,286046996.4,N
1571148235.8,286046994.0,Y
1571148255.6,286046997.3,P
1571148275.4,286046997.2,P
1571148295.3,286046999.5,N
1571148315.1,286046999.3,N
1571148335.9,286046998.1,N
1571148355.7,286047002.0,N
1571148375.5,286046999.9,N
1571148395.4,286046999.8,N
1571148415.2,286046998.5,N
1571148435.0,286047000.7,N
1571148435.9,286047000.7,N
1571148455.8,286047000.8,N
1571148475.6,286047000.4,N
1571148495.5,286046999.7,N
1571148515.3,286047001.0,N
1571148535.1,286047001.9,N
1571148555.9,286047003.4,N
1571148575.7,286047005.4,Y
1571148595.5,286047005.4,P
1571148615.4,286047005.3,N
1571148635.2,286047005.9,N
1571148655.1,286047004.8,N
1571148656.0,286047004.8,N
1571148675.8,286047003.5,N
1571148695.6,286047001.5,N
1571148715.5,286047004.1,N
1571148735.3,286047004.2,N
1571148755.1,286047003.7,N
1571148775.9,286047003.2,N
1571148795.7,286047001.6,N
1571148815.5,286047000.3,N
1571148835.4,286047000.3,N
1571148855.2,286046999.0,N
1571148875.1,286047001.0,N
1571148876.0,286047001.0,N
1571148925.8,286046996.8,E
1571148935.8,286046996.5,N
1571148955.6,286046999.0,P
1571148975.4,286046996.9,N
1571148995.3,286046999.4,N
1571149015.1,286046998.8,N
1571149035.8,286046998.2,N
1571149055.7,286047000.8,N
1571149075.5,286046999.7,N
1571149095.3,286047001.5,N
1571149115.2,286047002.2,N
1571149135.0,286046999.9,N
1571149135.9,286046999.9,N
1571149155.8,286046999.8,N
1571149175.6,286046998.6,N
1571149195.4,286046996.9,N
1571149215.3,286046996.1,N
1571149235.1,286046996.1,N
1571149255.9,286046993.5,Y
1571149275.7,286046995.5,P
1571149295.5,286046996.0,N
1571149315.4,286046995.6,P
1571149335.2,286046996.7,N
1571149355.0,286046998.4,N
1571149355.9,286046998.4,N
1571149375.8,286047000.6,N
1571149395.6,286047000.1,N
1571149415.4,286046999.9,N
1571149435.3,286047001.9,N
1571149455.1,286047004.4,N
1571149475.9,286047002.5,N
1571149495.7,286047002.5,N
1571149515.5,286047001.7,N
1571149535.4,286047001.7,N
1571149555.2,286047002.6,N
1571149575.0,286047000.3,N
1571149575.9,286047000.3,N
1571149595.8,286046998.9,N
1571149615.6,286046995.1,N
1571149635.5,286046995.8,N
1571149655.3,286046995.8,N
1571149675.1,286046995.2,N
1571149695.9,286046997.2,N
1571149715.7,286047001.8,N
1571149735.5,286047004.6,N
1571149755.4,286047001.5,N
1571149775.2,286046999.0,N
1571149795.1,286046998.3,N
1571149796.0,286046998.3,N
1571149815.8,286047001.0,N
1571149835.6,286046999.9,N
1571149855.5,286047002.6,N
1571149875.3,286047001.4,N
1571149895.1,286047002.6,N
1571149915.9,286047001.9,N
1571149935.7,286047005.7,N
1571149955.6,286047008.8,Y
1571149975.4,286047008.6,P
1571149995.2,286047010.0,N
1571150015.1,286047010.8,N
1571150016.0,286047010.8,N
1571150035.8,286047010.7,N
1571150055.7,286047011.9,Y
1571150075.5,286047003.2,P
1571150095.3,286047005.4,N
1571150115.2,286047007.6,P
1571150135.0,286047007.4,Y
1571150135.9,286047007.4,P
1571150155.7,286047001.0,N
1571150175.6,286047002.7,N
1571150195.4,286046999.8,N
1571150215.3,286047002.8,N
1571150235.1,286047002.5,N
1571150236.0,286047002.5,N
1571150255.8,286046999.7,N
1571150275.7,286047002.6,N
1571150295.5,286047001.5,N
1571150315.3,286047001.3,N
1571150335.2,286047003.7,N
1571150355.0,286047003.0,N
1571150355.9,286047003.0,N
1571150375.8,286047004.7,N
1571150395.6,286047006.3,Y
1571150415.4,286047002.9,P
1571150435.3,286047007.4,P
1571150455.1,286047007.5,P
1571150475.9,286047008.7,Y
1571150495.7,286047002.7,P
1571150515.5,286047001.8,N
1571150535.4,286047001.4,N
1571150555.2,286047002.4,N
1571150575.0,286046998.2,N
1571150575.9,286046998.2,N
1571150595.8,286047000.6,N
1571150615.6,286046999.5,N
1571150635.5,286046995.6,N
1571150655.3,286046994.4,N
1571150675.1,286046992.4,N
1571150695.9,286046990.8,N
1571150715.7,286046990.2,N
1571150735.5,286046994.6,N
1571150755.4,286046991.9,N
1571150775.2,286046991.6,N
1571150795.1,286046989.9,N
1571150796.0,286046989.9,N
1571150815.8,286046987.9,N
1571150835.6,286046986.1,N
1571150855.5,286046985.0,N
1571150875.3,286046982.6,Y
1571150895.2,286046988.6,P
1571150915.9,286046990.9,N
1571150935.7,286046992.9,N
1571150955.6,286046993.5,N
1571150975.4,286046996.1,N
1571150995.2,286046997.3,N
1571151015.1,286047000.4,N
1571151016.0,286047000.4,N
1571151035.8,286047002.4,N
1571151055.7,286047000.9,N
1571151075.5,286047001.1,N
1571151095.3,286047002.1,N
1571151115.2,286047003.9,N
1571151135.9,286047003.4,N
1571151155.7,286047001.6,N
1571151175.6,286046999.8,N
1571151195.4,286046999.5,N
1571151215.3,286046999.4,N
1571151235.1,286046999.2,N
1571151236.0,286046999.2,N
1571151255.8,286046998.3,N
1571151275.7,286046999.4,N
1571151295.5,286046999.9,N
1571151315.4,286047000.1,N
1571151335.2,286047002.0,N
1571151355.0,286047002.1,N
1571151355.9,286047002.1,N
1571151375.8,286047002.1,N
1571151395.6,286047001.5,N
1571151415.4,286046999.8,N
1571151435.3,286046998.1,N
1571151455.1,286047001.2,N
1571151475.9,286047001.1,N
1571151495.7,286047000.8,N
1571151515.5,286047002.6,N
1571151535.4,286047001.5,N
1571151555.2,286047002.7,N
1571151575.1,286047002.0,N
1571151576.0,286047002.0,N
1571151595.8,286047002.0,N
